Miscellaneous Local Product
Issued by NWS Hastings, NE

Home | Current Version | Previous Version | Graphics & Text | Print | Product List | Glossary On
Versions: 1 2 3 4 5 6 7 8 9 10 11 12 13 14 15 16 17 18 19 20 21 22 23 24 25 26 27 28 29 30 31 32 33 34 35 36 37 38 39 40 41 42 43 44 45 46 47 48 49 50
055
AXUS43 KGID 061602
MISGRI

GID CWA HOURLY WEATHER ROUNDUP
NATIONAL WEATHER SERVICE HASTINGS NE
1000 AM CST TUE DEC 06 2016

NOTE: "FAIR" INDICATES FEW OR NO CLOUDS BELOW 12,000 FEET WITH NO
SIGNIFICANT WEATHER AND/OR OBSTRUCTIONS TO VISIBILITY.

...SOUTH CENTRAL NEBRASKA...

CITY           SKY/WX    TMP DP  RH WIND       PRES   REMARKS
GRAND ISLAND   SUNNY     25  13  60 NW12      30.05R WCI  14
HASTINGS       SUNNY     26  12  55 NW16      30.06R WCI  14
KEARNEY        SUNNY     25  10  54 NW13      30.05S WCI  13
ORD            SUNNY     23   8  52 NW15G24   30.02R WCI  10
YORK           SUNNY     27  16  63 NW21      30.04R HAZE    WCI  13
AURORA         SUNNY     25  14  61 NW15      30.05R WCI  13
LEXINGTON      SUNNY     24  12  58 NW14      30.06R WCI  12
HOLDREGE       SUNNY     26  11  51 NW13G20   30.06R WCI  15
HEBRON         SUNNY     28  17  64 NW9       30.10R WCI  19

...NEBRASKA PANHANDLE...

CITY           SKY/WX    TMP DP  RH WIND       PRES   REMARKS
CHADRON        SUNNY     15   4  61 W15       30.04R WCI   0
ALLIANCE       SUNNY     11   4  73 NW5       29.99R WCI   3
SCOTTSBLUFF    SUNNY     15   5  64 NW10      30.01R WCI   2
SIDNEY         SUNNY     16   2  54 NW10      29.98R WCI   4

...WESTERN AND NORTH CENTRAL NEBRASKA...

CITY           SKY/WX    TMP DP  RH WIND       PRES   REMARKS
VALENTINE      SUNNY     16   4  59 W15       30.00R WCI   1
AINSWORTH      SUNNY     18   7  62 NW16G22   30.00R WCI   3
ONEILL         SUNNY     20   7  56 W23G33    29.99R WCI   4
BROKEN BOW     SUNNY     24   9  52 NW21      30.01R WCI   9
IMPERIAL       SUNNY     20   5  52 W13       30.05R WCI   7
NORTH PLATTE   SUNNY     21   9  59 NW13      30.04R WCI   9
MCCOOK         SUNNY     23   8  52 W14       30.08R WCI  11

...EASTERN NEBRASKA...

CITY           SKY/WX    TMP DP  RH WIND       PRES   REMARKS
NORFOLK        SUNNY     23   5  46 W29G39    29.98R WCI   6
SO SIOUX CITY  SUNNY     25  11  55 NW23G31   29.97R WCI  10
TEKAMAH        MOSUNNY   26  13  57 NW21G26   30.02R WCI  12
COLUMBUS       SUNNY     27   9  46 NW21G31   30.03R WCI  13
ALBION         SUNNY     24   8  50 NW21G29   30.02R WCI   9
OMAHA EPPLEY   SUNNY     27  12  53 NW18G24   30.03R WCI  14
OFFUTT AFB     SUNNY     27  14  57 NW12      30.03R WCI  17
MILLARD        SUNNY     26  12  55 NW15G24   30.03R WCI  14
LINCOLN        SUNNY     29   9  43 N22G31    30.06R WCI  15
NEBRASKA CITY  SUNNY     28   9  46 NW16G25   30.05R WCI  16
BEATRICE       SUNNY     30  12  47 NW21G26   30.07R WCI  17
FALLS CITY     SUNNY     29  13  51 NW18      30.06R WCI  16

...NORTHERN KANSAS...

CITY           SKY/WX    TMP DP  RH WIND       PRES   REMARKS
GOODLAND       SUNNY     22   7  52 W8        30.06R WCI  12
HILL CITY      SUNNY     28   9  44 NW15      30.12R WCI  16
NORTON         SUNNY     28   9  43 W13       30.08R WCI  18
PHILLIPSBURG   SUNNY     28  10  47 NW12      30.10S WCI  18
SMITH CENTER   SUNNY     27  12  54 NW16      30.11S WCI  14
BELOIT         SUNNY     28  18  64 W9        30.12R WCI  20
HAYS           SUNNY     28  12  51 NW12      30.12R WCI  18
RUSSELL        SUNNY     27  14  58 N13       30.11R WCI  16
CONCORDIA      SUNNY     28  18  66 NW7       30.10R WCI  21
SALINA         SUNNY     31  17  56 NW12      30.13R WCI  22
TOPEKA         SUNNY     33  13  43 NW22      30.08R WCI  21



USA.gov is the U.S. government's official web portal to all federal, state and local government web resources and services.